Regional Weather Roundup
Issued by NWS

Home | Current Version | Previous Version | Text Only | Print | Product List | Glossary Off
Versions: 1 2 3 4 5 6 7 8 9 10 11 12 13 14 15 16 17 18 19 20 21 22 23 24 25 26 27 28 29 30 31 32 33 34 35 36 37 38 39 40 41 42 43 44 45 46 47 48 49 50

000
ASUS43 KLSX 021559
RWRMO

WEATHER SUMMARY FOR MISSOURI
NATIONAL WEATHER SERVICE SPRINGFIELD MO
1100 AM CDT SUN AUG 02 2015

NOTE: "FAIR" INDICATES FEW OR NO CLOUDS BELOW 12,000 FEET WITH NO
       SIGNIFICANT WEATHER AND/OR OBSTRUCTIONS TO VISIBILITY.
       CURRENT SKY AND/OR WEATHER CONDITIONS ARE NOT AVAILABLE FOR
       CHILLICOTHE AND FARMINGTON.

MOZ001>031-035>038-043-044-053-054-021700-
...NORTHERN AND WESTERN MISSOURI...

CITY           SKY/WX    TMP DP  RH WIND       PRES   REMARKS
KANSAS CTY INT MOSUNNY   84  71  65 SW13      29.92S
KANSAS C DTWN  SUNNY     87  67  51 SW10      29.90F HX  90
LEE`S SUMMIT   SUNNY     86  68  54 SW13      29.94S
ST JOSEPH      SUNNY     85  75  72 W12       29.90R HX  93
CHILLICOTHE      N/A     86  74  67 SW7       29.90F HX  94
KIRKSVILLE     MOSUNNY   83  71  67 SW8       29.90F

$$
MOZ066>068-077>081-088>096-101>105-021700-
...SOUTHWEST MISSOURI...

CITY           SKY/WX    TMP DP  RH WIND       PRES   REMARKS
SPRINGFIELD    SUNNY     88  66  48 W7        30.00S HX  90
JOPLIN         SUNNY     90  65  43 SW13      29.99S HX  92

$$
MOZ032>034-039>042-045>050-055>058-069>072-021700-
...CENTRAL MISSOURI...

CITY           SKY/WX    TMP DP  RH WIND       PRES   REMARKS
COLUMBIA       SUNNY     84  70  62 SW12      29.96S
JEFFERSON CITY SUNNY     86  66  51 SW9       29.94F
ROLLA          SUNNY     85  70  60 S8        29.98S
SEDALIA        MOSUNNY   85  69  58 SW10      29.95F
WARRENSBURG    SUNNY     84  68  58 SW10      29.93F
OSAGE BEACH    SUNNY     86  66  51 SW9       29.98F

$$
MOZ051-052-059>065-021700-
...EAST CENTRAL MISSOURI...

CITY           SKY/WX    TMP DP  RH WIND       PRES   REMARKS
ST LOUIS INTL  MOSUNNY   91  69  48 W10       29.95S HX  96
SPIRIT OF STL  MOSUNNY   86  71  60 W8        29.94S HX  91
ST CHARLES     MOSUNNY   87  70  56 W7        29.93S HX  92

$$
MOZ072>076-082>087-097>100-106>115-021700-
...SOUTH CENTRAL AND SOUTHEAST MISSOURI...

CITY           SKY/WX    TMP DP  RH WIND       PRES   REMARKS
CAPE GIRARDEAU SUNNY     84  72  67 SW6       29.98F
FARMINGTON     SUNNY     84  68  58 SW8       30.03S
POPLAR BLUFF   MOSUNNY   85  74  69 S6        29.97S HX  92
WEST PLAINS    SUNNY     86  67  52 W6        30.03S

$$



USA.gov is the U.S. government's official web portal to all federal, state and local government web resources and services.